Погода в Кирове

Погода в Кирове : погода сейчас, прогноз погоды и архив. Всё, что Вы хотите узнать о погоде в Кирове!

Хотите узнать прогноз погоды в Кирове? Тогда Вам сюда: Погода в Кирове

Поиск расширенной информации на нашем сайте:

Другие новости

Новости СМИ2

Главная страница сайта

Новости сайта

03.07.2017

Напоминаем, что на нашем специализированном сайте Метеоцентр.Азия вы можете получить высокодетализированные автоматические прогнозы погоды по пунктам России, СНГ и мира в авиационном формате (включающие направление и скорость ветра, видимость, явления погоды, количество и форму облачности, нижнюю и верхнюю границу облачности).

Рекомендуем: Деревянные окна Marconi

Погода в Кирове - сегодня

Время (UTC), дата Ветер
(°,м/с) 
Видим.   Явления Облачность Т
(°С)
Тd
(°С)
f(%) Тe
(°С)
Pmin
(гПа)
dP
(гПа)
Po
(мм)
O2
(г/м3)
Тmin Tmax R s Состояние
почвы
15 14.02.18 тихо () -0{02}  10 км    10/0 верхняя 
[Ci]
-14.4 -17.1 80 -14  1036.9  0.5  762  325    -6.1       
03 15.02.18 260 (З) 1-1{01}  10 км    10/0 верхняя 
[Ci]
-18.3 -19.5 90 -19  1038.9  0.5  763  331  -18.7      49  равномерный
сухой снег
100% 
15 15.02.18 260 (З) 1-1{02}  20000 м    3/0 верхняя 
[Ci fib]
-11.9 -13.9 85 -12  1040.7  765  323    -6.7       
21 15.02.18 240 (ЮЗ) 1-1{02}  20000 м    ясно 
-13.9 -15.2 90 -14  1041.1  765  326           
00 16.02.18 260 (З) 1-2{03}  20000 м    ясно 
-15.1 -16.4 90 -15  1041.7  0.5  765  328           
03 16.02.18 тихо () -0{02}  20000 м    ясно 
-17.8 -19 90 -18  1041.6  -0.3  765  331  -18      48  равномерный
сухой снег
100% 
15 16.02.18 200 (Ю) 2-3{04}  20000 м    10/0 средняя, верхняя 
[Ac As|Cs]
-8.4 -12.1 75 -10  1038.5  -0.8  763  318    -6.4       
03 17.02.18 200 (Ю) 2-4{05}  10 км  слаб. снег  10/0 средняя 
[Ac As]
-7.7 -9.5 87 -9  1035  -0.2  761  316  -8.7    0.3  49  равномерный
сухой снег
100% 
15 17.02.18 180 (Ю) 2-5{05}  20000 м    9/9 1000 м 
[Sc]
-5 -9.1 73 -6  1032.9  -0.7  759  313    -4  0.2     
18 17.02.18 170 (Ю) 2-3{05}  20000 м    ясно 
-8 -11.2 78 -10  1032.8  -0.4  759  316           
03 18.02.18 160 (Ю) 2-4{06}  10 км  слаб. снег  10/0 средняя 
[As trans]
-9.9 -12.1 84 -12  1030.7  -1  757  318  -9.9    0.0  49  равномерный
сухой снег
100% 
15 18.02.18 140 (ЮВ) 3-6{06}  20000 м    10/0 средняя 
[As op]
-6.2 -10.6 71 -9  1027.5  -1  755  312    -5.1  0.2     
03 19.02.18 140 (ЮВ) 3-5{05}  4000 м  слаб. снег  10/0 средняя 
[As op]
-8.5 -10.8 83 -11  1022.4  -1.8  751  314  -9.2    0.0  49  равномерный
сухой снег
100% 
15 19.02.18 160 (Ю) 2-4{05}  10 км  слаб. снег  10/6 300 м средняя 
[Frnb|As op]
-8.1 -9.5 90 -10  1019  -0.6  749  312    -6.3     
03 20.02.18 150 (ЮВ) 1-1{02}  10 км  слаб. снег  10/0 средняя 
[As op]
-13.8 -14.4 95 -14  1016.2  -1.3  746  318  -14    0.9  51  равномерный
сухой снег
100% 
15 20.02.18 тихо () -0{01}  10 км  слаб. снег  10/0 средняя, верхняя 
[Ac As|Cs]
-9.8 -11.5 87 -10  1013.6  -0.8  745  312    -6.4     
03 21.02.18 тихо () -0{01}  20000 м  {снег}  ясно 
-20.4 -21.6 90 -20  1013.6  -0.1  744  326  -20.5    0.7  54  равномерный
сухой снег
100% 
15 21.02.18 290 (З) 1-2{02}  4000 м  слаб. снег  10/0 средняя 
[As trans]
-15.2 -17.2 85 -15  1015.1  0.8  746  320    -10.3  0.2     
03 22.02.18 320 (СЗ) 1-2{02}  10 км  слаб. снег  10/0 средняя 
[As trans]
-19.6 -20.8 90 -20  1018.8  0.6  748  326  -19.7    0.5  54  равномерный
сухой снег
100% 
09 22.02.18 310 (СЗ) 1-3{04}  20000 м  {снег}  6/0 верхняя 
[Ci fib]
-16.6 -18.5 85 -17  1019.8  0.5  749  323           
18 22.02.18 тихо () -0{04}  20000 м    ясно 
-21.8 -23 90 -22  1022.2  0.4  750  330           
00 23.02.18 210 (ЮЗ) 1-2{04}  20000 м    ясно 
-22.2 -23.3 91 -23  1021.9  -0.3  750  331           
03 23.02.18 210 (ЮЗ) 1-1{03}  10 км  слаб. снег  10/0 средняя 
[As trans]
-22 -23.2 90 -22  1021.6  -0.3  750  330  -24.2    0.0  54  равномерный
сухой снег
100% 
15 23.02.18 260 (З) 2-4{05}  10 км  слаб. снег  10/0 средняя 
[As op]
-12.4 -13.7 90 -14  1020.3  750  318    -10.8  0.5     
03 24.02.18 тихо () -0{03}  10 км  слаб. снег  10/0 средняя 
[As trans]
-18.2 -19.4 90 -18  1022.9  0.7  751  326  -19    0.6  55  равномерный
сухой снег
100% 
Время (UTC), дата Ветер
(°,м/с) 
Видим.   Явления Облачность Т
(°С)
Тd
(°С)
f(%) Тe
(°С)
Pmin
(гПа)
dP
(гПа)
Po
(мм)
O2
(г/м3)
Тmin Tmax R s Состояние
почвы

Для получения пояснительной информации подведите курсор к названию столбца.

ПОГОДА в Кирове - архив

Всё, что Вы хотите узнать о погоде в Кирове - удобно и подробно!

Выберите нужную дату (начиная с 1 января 2015* года) и нажмите кнопку "Найти".
Будут отображены архивные сводки погоды по пункту Киров, начиная с указанной даты.


Отображать данные в формате CSV (для использования в таблицах Excel)


Внимание! Наш архив погоды предназначен исключительно для личного некоммерческого использования в познавательных целях. Если Вам необходимы официальные справки о состоянии погоды (для производственных, юридических, коммерческих и т.п. целей), обращайтесь в органы Росгидромета.

*Примечание: данная дата относится к архиву по метеостанциям СССР (Россия, СНГ, Балтия).
Архив по метеостанциям Зарубежной Европы и Азии (кроме Китая) хранится 10 дней, по другим регионам земного шара (Китай, Африка, Америка, Австралия, Океания) - 1 день.

Киров - район местоположения метеостанции


Название, широта, долгота, высота метеостанции:
Киров 58.6°ш. 49.6°д. 158 м над ур. моря [Российская Федерация]

Дополнительная информация

В oтличие oт бoльшинства пoгoдных сайтoв мы публикуем пoдрoбную метеoинфoрмацию в детальнoм прoфессиoнальнoм фoрмате.

Характеристики температуры и влажнoсти вoздуха измеряются на высoте 2 м в тени вдали oт зданий и деревьев.
Скoрoсть ветра измеряется на высoте 10 м (на урoвне рoста челoвека скoрoсть ветра ниже в 1.5-2 раза). Если метеoстанция нахoдится в гoрoде или в лесу, тo скoрoсть ветра занижена на 2-4 м/с пo сравнению с oткрытым местoм. Скoрoсть ветра над акватoриями крупных рек и oзёр, а также на вершинах хoлмoв на 2-5 м/с выше, чем в oбычных услoвиях.
Атмoсфернoе давление в разных тoчках местнoсти мoжет значительнo oтличаться oт давления на метеoстанции, в зависимoсти oт услoвий рельефа (при пoдъёме на 10 м давление пoнижается примернo на 1 мм рт.ст.).